Weather History for Crestview, FL

Change the Weather History Date:

Wednesday, August 21, 2013

  Actual Average Record
Temperature  
Mean Temperature 80 °F -  
Max Temperature 91 °F - - ()
Min Temperature 70 °F - - ()
Cooling Degree Days 16    
Growing Degree Days 30 (Base 50)    
Moisture  
Dew Point 72 °F    
Average Humidity 84    
Maximum Humidity 99    
Minimum Humidity 55    
Precipitation  
Precipitation 0.48 in - - ()
Sea Level Pressure  
Sea Level Pressure 30.11 in    
Wind  
Wind Speed 5 mph (ENE)    
Max Wind Speed 23 mph    
Max Gust Speed 25 mph    
Visibility 9 miles    
Events Rain , Thunderstorm    
T = Trace of Precipitation, MM = Missing Value Source: NWS Daily Summary

Daily Weather History Graph

Daily Weather History Graph

Search for Another Location

Airport:

Trip Planner

Search our weather history database for the weather conditions in past years. The results will help you decide how hot, cold, wet, or windy it might be!

Date:

Astronomy

Aug. 21, 2013 Rise Set
Actual Time 6:16 AM CDT 7:21 PM CDT
Civil Twilight 5:51 AM CDT 7:46 PM CDT
Nautical Twilight 5:21 AM CDT 8:16 PM CDT
Astronomical Twilight 4:51 AM CDT 8:46 PM CDT
Moon 7:39 PM CDT (8/21) 6:49 AM CDT (8/21)
Length of Visible Light 13h 55m
Length of Day
13h 05m
Waxing Gibbous, 99% of the Moon is Illuminated
Aug 21
Waxing Gibbous
Aug 28
Last Quarter
Sep 5
New
Sep 12
First Quarter
Sep 19
Full

Hourly Weather History & Observations

Time (CDT) Temp. Heat Index Dew Point Humidity Pressure Visibility Wind Dir Wind Speed Gust Speed Precip Events Conditions
12:58 AM 72.1 °F - 72.0 °F 99% 30.11 in 10.0 mi NNE 2.3 mph - N/A   Partly Cloudy
1:58 AM 71.4 °F - 71.1 °F 99% 30.09 in 8.0 mi East 2.3 mph - N/A   Clear
2:58 AM 71.4 °F - 71.1 °F 99% 30.09 in 10.0 mi ENE 3.5 mph - N/A   Clear
3:58 AM 71.2 °F - 71.1 °F 99% 30.09 in 10.0 mi East 6.9 mph - N/A   Clear
4:58 AM 72.1 °F - 69.4 °F 91% 30.09 in 10.0 mi East 2.3 mph - N/A   Clear
5:58 AM 71.8 °F - 69.6 °F 93% 30.11 in 10.0 mi North 3.5 mph - N/A   Clear
6:58 AM 70.9 °F - 70.5 °F 99% 30.13 in 10.0 mi NNE 2.3 mph - N/A   Clear
7:58 AM 76.1 °F - 70.9 °F 84% 30.14 in 10.0 mi East 3.5 mph - N/A   Clear
8:55 AM 80.1 °F 84.0 °F 72.3 °F 77% 30.14 in 10.0 mi ENE 6.9 mph - N/A   Scattered Clouds
9:55 AM 82.8 °F 88.7 °F 73.4 °F 73% 30.14 in 10.0 mi ENE 5.8 mph - N/A   Scattered Clouds
10:55 AM 86.4 °F 94.2 °F 73.6 °F 66% 30.16 in 10.0 mi East 2.3 mph - N/A   Scattered Clouds
11:55 AM 88.0 °F 95.1 °F 72.7 °F 60% 30.14 in 10.0 mi NNE 1.2 mph - N/A   Mostly Cloudy
12:55 PM 91.4 °F 100.1 °F 73.4 °F 55% 30.12 in 10.0 mi East 5.8 mph - N/A   Mostly Cloudy
1:55 PM 90.5 °F 98.6 °F 72.9 °F 56% 30.09 in 10.0 mi East 5.8 mph - N/A   Mostly Cloudy
2:31 PM 89.6 °F 98.2 °F 73.4 °F 59% 30.08 in 10.0 mi ESE 3.5 mph - N/A Rain , Thunderstorm Light Thunderstorms and Rain
2:41 PM 87.8 °F 97.6 °F 75.2 °F 66% 30.08 in 2.0 mi South 23.0 mph - N/A Rain , Thunderstorm Thunderstorms and Rain
2:43 PM 87.8 °F 97.6 °F 75.2 °F 66% 30.08 in 0.8 mi South 23.0 mph 25.3 mph N/A Rain , Thunderstorm Thunderstorms and Rain
2:46 PM 84.2 °F 92.3 °F 75.2 °F 74% 30.08 in 2.0 mi SW 17.3 mph - N/A Rain , Thunderstorm Thunderstorms and Rain
2:55 PM 80.6 °F 84.4 °F 71.2 °F 73% 30.09 in 3.0 mi South 4.6 mph - N/A Rain , Thunderstorm Light Thunderstorms and Rain
3:55 PM 75.9 °F - 72.9 °F 90% 30.09 in 10.0 mi NNW 5.8 mph - N/A Thunderstorm Thunderstorm
4:20 PM 75.2 °F - 73.4 °F 94% 30.09 in 10.0 mi NNW 3.5 mph - N/A   Mostly Cloudy
4:59 PM 75.9 °F - 73.9 °F 94% 30.10 in 10.0 mi Calm Calm - N/A   Mostly Cloudy
5:55 PM 75.7 °F - 74.3 °F 95% 30.10 in 10.0 mi NNW 5.8 mph - N/A   Mostly Cloudy
6:55 PM 74.3 °F - 73.4 °F 97% 30.11 in 10.0 mi NE 1.2 mph - N/A   Mostly Cloudy
7:55 PM 74.3 °F - 73.4 °F 97% 30.10 in 10.0 mi NE 2.3 mph - N/A   Mostly Cloudy
8:55 PM 74.1 °F - 73.8 °F 99% 30.12 in 10.0 mi ENE 4.6 mph - N/A   Mostly Cloudy
9:55 PM 73.4 °F - 70.7 °F 91% 30.13 in 10.0 mi East 3.5 mph - N/A   Mostly Cloudy
10:55 PM 73.0 °F - 70.0 °F 90% 30.12 in 10.0 mi East 2.3 mph - N/A   Scattered Clouds
11:55 PM 71.8 °F - 70.5 °F 96% 30.11 in 10.0 mi Calm Calm - N/A   Scattered Clouds